FW9892 Weather Reports


Display with metric or nautical units.
time (UTC)temp
F
wind
direction
speed
MPH
gust
MPH
rain 1hr
in
rain 24hr
in
rain mn
in
humidity
%
barometer
mb
20260503034554 57 0 0.0 0.0 0.00 0.00 0.00 86 1011.9
20260503033056 57 0 0.0 0.0 0.00 0.00 0.00 86 1011.8
20260503031554 58 0 0.0 0.0 0.00 0.00 0.00 87 1011.8
20260503030050 57 0 0.0 0.0 0.00 0.00 0.00 88 1011.8
20260503024554 57 0 0.0 0.0 0.00 0.00 0.00 87 1012.0
20260503023058 57 0 0.0 0.0 0.00 0.00 0.00 86 1012.1
20260503021552 58 0 0.0 0.0 0.00 0.00 0.00 85 1012.0
20260503020052 58 0 0.0 0.0 0.00 0.00 0.00 84 1012.3
20260503014602 59 0 0.0 0.0 0.00 0.00 0.00 83 1012.2
20260503013050 60 0 0.0 0.0 0.00 0.00 0.00 83 1012.5
20260503011552 60 0 0.0 0.0 0.00 0.00 0.00 83 1012.5
20260503010054 60 0 0.0 0.0 0.00 0.00 0.00 83 1012.7
20260503004551 60 0 0.0 0.0 0.00 0.00 0.00 83 1012.7
20260503003106 60 0 0.0 0.0 0.00 0.00 0.00 82 1012.8
20260503001551 60 0 0.0 0.0 0.00 0.00 0.00 81 1013.0
20260503000047 60 0 0.0 0.0 0.00 0.00 0.00 81 1013.0
20260502234554 60 0 0.0 0.0 0.00 0.00 0.00 80 1013.2
20260502233048 61 0 0.0 0.0 0.00 0.00 0.00 79 1013.4
20260502231554 61 0 0.0 0.0 0.00 0.00 0.00 78 1013.3
20260502230052 62 0 0.0 0.0 0.00 0.00 0.00 78 1013.3
20260502224550 62 0 0.0 0.0 0.00 0.00 0.00 78 1013.5
20260502223050 62 0 0.0 0.0 0.00 0.00 0.00 77 1013.6
20260502221552 63 0 0.0 0.0 0.00 0.00 0.00 76 1013.5
20260502220052 63 0 0.0 0.0 0.00 0.00 0.00 76 1013.5
20260502214555 63 0 0.0 0.0 0.00 0.00 0.00 76 1013.6
20260502213052 64 0 0.0 0.0 0.00 0.00 0.00 75 1013.5
20260502211553 64 0 0.0 0.0 0.00 0.00 0.00 75 1013.7
20260502210106 64 0 0.0 0.0 0.00 0.00 0.00 75 1013.6
20260502204558 64 0 0.0 0.0 0.00 0.00 0.00 75 1013.8
20260502203058 65 0 0.0 5.0 0.00 0.00 0.00 74 1013.9
20260502201551 65 0 0.0 0.0 0.00 0.00 0.00 71 1013.8
20260502200054 66 0 0.0 0.0 0.00 0.00 0.00 71 1013.7
20260502194556 67 0 0.0 0.0 0.00 0.00 0.00 70 1013.8
20260502193056 68 0 0.0 0.0 0.00 0.00 0.00 69 1013.8
20260502191606 69 0 0.0 1.0 0.00 0.00 0.00 69 1013.9
20260502190053 69 0 0.0 0.0 0.00 0.00 0.00 68 1013.9
20260502184605 69 0 0.0 0.0 0.00 0.00 0.00 67 1013.9
20260502183058 70 0 0.0 0.0 0.00 0.00 0.00 67 1014.0
20260502181556 71 0 0.0 0.0 0.00 0.00 0.00 64 1013.9
20260502163102 74 0 0.0 3.0 0.00 0.00 0.00 58 1014.5
20260502161559 74 0 0.0 7.0 0.00 0.00 0.00 54 1014.7
20260502151613 76 0 0.0 2.0 0.00 0.00 0.00 53 1015.3
20260502123102 73 0 1.0 7.0 0.00 0.00 0.00 59 1017.7
20260502121549 73 253 1.0 6.0 0.00 0.00 0.00 60 1017.8
20260502114556 70 219 0.0 9.0 0.00 0.00 0.00 65 1018.2
20260502113104 71 0 1.0 4.0 0.00 0.00 0.00 67 1018.3
20260502111555 71 248 1.0 7.0 0.00 0.00 0.00 65 1018.5
20260502110054 71 0 1.0 7.0 0.00 0.00 0.00 63 1018.5
20260502104555 72 0 0.0 9.0 0.00 0.00 0.00 61 1018.5
20260502103103 72 273 2.0 9.0 0.00 0.00 0.00 61 1018.6
20260502101603 73 256 2.0 11.0 0.00 0.00 0.00 61 1018.5
20260502100118 72 246 2.0 7.0 0.00 0.00 0.00 61 1018.9
20260502090114 69 0 1.0 7.0 0.00 0.00 0.00 64 1019.1
20260502070053 64 0 0.0 1.0 0.00 0.00 0.00 69 1019.5
20260502064606 62 0 0.0 0.0 0.00 0.00 0.00 69 1019.6
20260502063059 61 0 0.0 3.0 0.00 0.00 0.00 72 1019.5
20260502061611 59 0 0.0 3.0 0.00 0.00 0.00 73 1019.5
20260502060054 58 0 0.0 1.0 0.00 0.00 0.00 73 1019.5
20260502054552 57 0 0.0 0.0 0.00 0.00 0.00 74 1019.5
20260502053101 56 0 0.0 0.0 0.00 0.00 0.00 75 1019.4
20260502051553 55 0 0.0 0.0 0.00 0.00 0.00 74 1019.3
20260502050058 55 0 0.0 0.0 0.00 0.00 0.00 73 1019.2
20260502044549 57 0 0.0 1.0 0.00 0.00 0.00 69 1019.2
20260502043059 58 0 0.0 0.0 0.00 0.00 0.00 67 1019.2
20260502041553 58 0 0.0 1.0 0.00 0.00 0.00 65 1019.2
20260502040058 58 0 0.0 2.0 0.00 0.00 0.00 63 1019.2